[[{"header":{"parameterUnit":"m.s-1","parameterCategory":1,"la1":30.2991,"la2":30.254,"lo1":-89.0895,"lo2":-89.0444,"dy":0.0017,"dx":0.0017,"nx":28,"ny":28,"refTime":"2025-07-10T21:00:00:Z","depth":0,"parameterNumber":2,"parameterNumberName":"U-component_of_WINDS"},"data":[0,0,0,0,0,0,0,0,0,0,0,0,0,0,0,0,0,0,0,0,0,0,0,0,0,0,0,0,0,0,0,0,0,0,0,0,0,0,0,0,0,0,0,0,0,0,0,0,0,0,0,0,0,0,0,0,0,0,3.716,3.7161,0,3.7186,3.7187,3.7187,3.7114,3.7112,3.711,3.7108,3.7137,3.714,3.7143,0,0,0,0,0,0,0,0,0,0,0,0,0,3.7049,3.7052,3.716,3.7161,3.7161,3.7186,3.7187,3.7187,3.7115,3.7112,3.7109,3.7107,3.7136,3.714,3.7143,0,0,0,0,0,0,0,0,0,0,0,0,0,3.7089,3.7053,3.716,3.7128,3.7125,3.7186,3.7187,3.7187,3.7115,3.7112,3.7108,3.7105,3.7135,3.7139,3.7144,3.7238,0,0,3.7157,3.7159,0,0,0,0,0,0,0,0,3.7087,3.7093,3.7132,3.713,3.7127,3.7144,3.7158,3.7204,3.7116,3.7119,3.7108,3.7104,3.7142,3.7146,3.7158,3.724,3.7241,3.7157,3.716,3.7162,3.7163,0,0,0,0,0,0,0,3.7084,3.7092,3.7171,3.7133,3.713,3.7113,3.7114,3.7167,3.715,3.7119,3.7113,3.7117,3.714,3.7154,3.7158,3.7241,3.7157,3.7161,3.7164,3.7165,3.74,3.7404,0,0,0,0,0,0,3.7085,3.709,3.717,3.7171,3.7098,3.7117,3.7119,3.7142,3.7149,3.7146,3.712,3.7114,3.7148,3.7153,3.7159,3.7269,3.7162,3.7166,3.7168,3.7397,3.7401,3.7405,0,0,0,0,0,0,3.7083,3.7093,3.7169,3.7129,3.7137,3.7123,3.7149,3.7144,3.7158,3.715,3.7147,3.7137,3.7146,3.7153,3.7219,3.7269,3.7168,3.7172,3.7392,3.7398,3.7403,3.749,0,0,0,0,0,0,3.708,3.7093,3.7128,3.7131,3.714,3.7227,3.7152,3.7147,3.7165,3.7157,3.7165,3.7163,3.7144,3.7212,3.7223,3.7273,3.7175,3.7388,3.7395,3.7401,3.7482,3.7497,3.751,0,0,0,0,0,3.7077,3.7152,3.713,3.714,3.7184,3.723,3.7236,3.7211,3.717,3.7205,3.72,3.7163,3.7262,3.722,3.7231,3.7283,3.7384,3.7393,3.7401,3.7476,3.7494,3.751,0,0,0,0,0,0,3.7157,3.7152,3.7127,3.7206,3.7219,3.7218,3.7262,3.7232,3.7257,3.7249,3.7218,3.7221,3.7292,3.7294,3.7247,3.7374,3.7316,3.7327,3.737,3.7387,3.7401,3.7398,3.7179,0,0,0,0,0,3.7184,3.7222,3.7216,3.7286,3.7294,3.7277,3.7297,3.7276,3.7289,3.7294,3.7294,3.7308,3.7342,3.7365,3.7396,3.7483,3.7483,3.7524,3.7538,3.755,3.7559,3.7604,3.7621,3.7432,3.7432,3.7432,0,0,3.724,3.7242,3.7268,3.7302,3.731,3.735,3.7282,3.7328,3.7357,3.7301,3.7362,3.7363,3.7377,3.7453,3.7486,3.7457,3.7612,3.756,3.757,3.7572,3.7614,3.7632,3.7648,3.7437,3.7436,3.7435,0,0,3.7362,3.7368,3.7426,3.7435,3.7447,3.7435,3.745,3.7453,3.745,3.7511,3.747,3.7505,3.7565,3.7576,3.7589,3.7715,3.7682,3.7726,3.7799,3.7843,3.7858,3.7871,3.7914,3.793,3.7736,3.7736,3.7736,0,3.743,3.7488,3.746,3.7508,3.7524,3.7475,3.7533,3.7543,3.7566,3.7578,3.7545,3.7618,3.7624,3.7701,3.7731,3.7745,3.7759,3.7724,3.7858,3.7871,3.7883,3.7923,3.794,3.7741,3.7741,3.774,3.774,0,3.757,3.7611,3.7657,3.7678,3.7699,3.7753,3.7733,3.7758,3.7736,3.7728,3.779,3.7796,3.7826,3.7844,3.7824,3.7918,3.7899,3.7863,3.7803,3.7906,3.7944,3.7959,3.7749,3.7747,3.7745,3.7744,0,0,3.7743,3.7747,3.7764,3.7773,3.7782,3.7813,3.7865,3.7893,3.7915,3.7932,3.7974,3.8025,3.7991,3.8006,3.7987,3.8026,3.8123,3.7984,3.7984,3.8008,3.8225,3.8251,3.8269,3.8102,3.8105,3.8107,3.8223,0,3.7861,3.7947,3.7923,3.8009,3.8046,3.8,3.8044,3.8055,3.805,3.808,3.8074,3.811,3.8064,3.8072,3.8109,3.8104,3.8166,3.8095,3.8139,3.8141,3.8135,3.8289,3.8317,3.8426,3.8238,3.8241,3.8242,0,3.801,3.8032,3.8121,3.8123,3.8138,3.8178,3.8202,3.8232,3.8244,3.8237,3.8254,3.8227,3.8277,3.8219,3.8287,3.8239,3.8256,3.8257,3.826,3.8262,3.8196,3.8293,3.8461,3.8476,3.8266,3.8264,3.8262,0,3.8124,3.8176,3.8235,3.8245,3.825,3.8278,3.8282,3.829,3.8309,3.833,3.8342,3.837,3.8384,3.8407,3.8387,3.8347,3.8458,3.8399,3.8453,3.8454,3.8477,3.8475,3.8647,3.8492,3.8492,3.8491,3.8491,0,3.8258,3.8314,3.8286,3.8323,3.8384,3.8357,3.8419,3.8417,3.8425,3.846,3.8424,3.8458,3.8432,3.8464,3.845,3.8507,3.8515,3.851,3.8505,3.8512,3.8512,3.8521,3.8512,3.8496,3.8495,3.8494,3.8493,0,3.8394,3.8379,3.844,3.844,3.8441,3.8486,3.8485,3.8519,3.8511,3.8556,3.8565,3.8552,3.8588,3.8572,3.861,3.86,3.8673,3.866,3.8669,3.8665,3.8718,3.8713,3.89,3.8923,3.8755,3.8757,3.8758,0,3.8479,3.8521,3.8525,3.8545,3.8551,3.8585,3.8603,3.8579,3.8599,3.8615,3.8647,3.8679,3.8703,3.8763,3.8757,3.8785,3.8771,3.8835,3.8775,3.8779,3.8769,3.8765,3.8768,3.8846,3.8848,3.8849,3.8851,0,3.8631,3.8621,3.8648,3.8673,3.8696,3.8714,3.873,3.8749,3.8725,3.875,3.8785,3.8804,3.8842,3.8874,3.8899,3.8903,3.8873,3.887,3.8883,3.8889,3.8892,3.8889,3.8699,3.8865,3.8864,3.8863,3.8862,3.8861,3.8743,3.8777,3.8785,3.8816,3.8825,3.884,3.8871,3.8866,3.8895,3.8923,3.8907,3.8948,3.8958,3.8988,3.8996,3.9028,3.9003,3.9023,3.9028,3.9032,3.9038,3.8889,3.9033,3.9032,3.9032,3.9032,3.9031,0,3.8891,3.8893,3.8922,3.8944,3.8969,3.8939,3.8954,3.8976,3.9013,3.9024,3.9048,3.9089,3.9119,3.9116,3.9144,3.917,3.9157,3.9178,3.9175,3.9176,3.9061,3.9045,3.9188,3.9188,3.9188,3.9188,3.9188,3.9188,3.897,3.9026,3.9017,3.9076,3.9079,3.9117,3.9129,3.9142,3.9151,3.9197,3.9222,3.9219,3.9225,3.9253,3.928,3.9278,3.9289,3.9315,3.9308,3.92,3.9184,3.9169,3.9154,3.9318,3.9318,3.942,3.9421,3.9422]},{"header":{"parameterUnit":"m.s-1","parameterCategory":1,"la1":30.2991,"la2":30.254,"lo1":-89.0895,"lo2":-89.0444,"dy":0.0017,"dx":0.0017,"nx":28,"ny":28,"refTime":"2025-07-10T21:00:00:Z","depth":0,"parameterNumber":3,"parameterNumberName":"V-component_of_WINDS"},"data":[0,0,0,0,0,0,0,0,0,0,0,0,0,0,0,0,0,0,0,0,0,0,0,0,0,0,0,0,0,0,0,0,0,0,0,0,0,0,0,0,0,0,0,0,0,0,0,0,0,0,0,0,0,0,0,0,0,0,3.3066,3.3067,0,3.3221,3.3222,3.3224,3.3266,3.3265,3.3264,3.3263,3.3414,3.3418,3.3423,0,0,0,0,0,0,0,0,0,0,0,0,0,3.2798,3.2802,3.3066,3.3068,3.307,3.322,3.3222,3.3224,3.3266,3.3265,3.3263,3.3262,3.3412,3.3418,3.3424,0,0,0,0,0,0,0,0,0,0,0,0,0,3.2929,3.2804,3.3065,3.3108,3.3114,3.322,3.3222,3.3225,3.3266,3.3265,3.3263,3.3262,3.341,3.3417,3.3424,3.3496,0,0,3.3447,3.345,0,0,0,0,0,0,0,0,3.2922,3.2939,3.31,3.3106,3.3112,3.3223,3.3183,3.3316,3.3266,3.3208,3.3263,3.3261,3.3351,3.3363,3.3394,3.3503,3.351,3.3447,3.3452,3.3455,3.3457,0,0,0,0,0,0,0,3.2912,3.2932,3.3127,3.3102,3.311,3.3117,3.3135,3.3208,3.3285,3.3213,3.3216,3.3234,3.3354,3.3387,3.3398,3.3512,3.3447,3.3454,3.3458,3.3461,3.3685,3.3686,0,0,0,0,0,0,3.2897,3.2925,3.3122,3.3131,3.3012,3.3123,3.3143,3.3188,3.3284,3.3298,3.3235,3.3236,3.3376,3.339,3.3404,3.3493,3.3455,3.3462,3.3466,3.3683,3.3685,3.3687,0,0,0,0,0,0,3.2891,3.2914,3.3116,3.3029,3.3055,3.3129,3.318,3.3192,3.3226,3.3301,3.3314,3.3257,3.3375,3.3394,3.3473,3.3499,3.3465,3.3472,3.3681,3.3684,3.3686,3.3673,0,0,0,0,0,0,3.2883,3.2912,3.2942,3.303,3.306,3.3185,3.3182,3.3196,3.3239,3.3241,3.3324,3.3337,3.3375,3.3462,3.348,3.3508,3.3477,3.3679,3.3683,3.3685,3.3671,3.3674,3.3677,0,0,0,0,0,3.2874,3.2931,3.2943,3.2967,3.3099,3.3186,3.3203,3.3249,3.3241,3.3271,3.3319,3.3334,3.3493,3.347,3.3491,3.3521,3.3678,3.3682,3.3685,3.367,3.3674,3.3677,0,0,0,0,0,0,3.2842,3.2943,3.2958,3.3046,3.3107,3.3193,3.3232,3.3252,3.3315,3.3313,3.3365,3.3383,3.3458,3.3498,3.347,3.3595,3.3585,3.3593,3.3566,3.3571,3.3574,3.3562,3.3483,0,0,0,0,0,3.2846,3.291,3.2994,3.3063,3.3094,3.3157,3.3197,3.3227,3.3291,3.3317,3.3371,3.3431,3.3494,3.3534,3.3597,3.3677,3.3694,3.3708,3.3711,3.3713,3.3719,3.3762,3.3768,3.3699,3.3699,3.3699,0,0,3.2853,3.2916,3.2953,3.3058,3.311,3.3173,3.3179,3.3246,3.3292,3.3326,3.3405,3.3446,3.3516,3.3596,3.3633,3.3631,3.3742,3.3717,3.3718,3.3723,3.3766,3.3773,3.3779,3.3701,3.3701,3.37,0,0,3.2899,3.2954,3.3017,3.3069,3.3147,3.3189,3.3204,3.3287,3.3316,3.3397,3.3423,3.3477,3.3586,3.3635,3.3673,3.3736,3.3752,3.3754,3.377,3.3811,3.3817,3.3822,3.3843,3.385,3.376,3.376,3.376,0,3.2897,3.2997,3.3046,3.3113,3.3157,3.3193,3.3255,3.3302,3.3395,3.3423,3.342,3.3556,3.3606,3.3696,3.3712,3.3742,3.3759,3.3745,3.3812,3.3818,3.3823,3.3844,3.3852,3.376,3.376,3.376,3.376,0,3.299,3.3058,3.3099,3.3191,3.324,3.3304,3.3361,3.3404,3.3429,3.347,3.3549,3.361,3.3685,3.3709,3.3733,3.3802,3.3798,3.3803,3.3794,3.3829,3.3849,3.3857,3.376,3.376,3.376,3.376,0,0,3.3021,3.314,3.3154,3.3196,3.3284,3.3336,3.34,3.3476,3.351,3.3573,3.3626,3.3717,3.3721,3.3765,3.3795,3.3831,3.3875,3.3831,3.3834,3.3836,3.3953,3.3949,3.3957,3.3886,3.3888,3.3889,3.3947,0,3.3077,3.3197,3.3243,3.3339,3.3401,3.3435,3.349,3.3548,3.3588,3.3644,3.3687,3.375,3.3752,3.3779,3.3816,3.3862,3.3899,3.3859,3.3934,3.3936,3.3915,3.3968,3.3964,3.4016,3.3955,3.3957,3.3958,0,3.3159,3.3225,3.3328,3.3408,3.3435,3.3485,3.3557,3.3611,3.3677,3.3703,3.3752,3.3779,3.3844,3.3832,3.3921,3.3892,3.3925,3.3952,3.3955,3.3964,3.3949,3.3977,3.4033,3.404,3.3971,3.397,3.3969,0,3.317,3.3284,3.336,3.3395,3.349,3.3523,3.3564,3.3629,3.3671,3.3733,3.376,3.3828,3.3864,3.3915,3.3958,3.3946,3.4042,3.4034,3.4064,3.4063,3.4082,3.408,3.4144,3.4105,3.4105,3.4105,3.4104,0,3.3228,3.3289,3.3366,3.3413,3.3481,3.3532,3.3598,3.364,3.3697,3.375,3.3783,3.3831,3.3887,3.3941,3.3975,3.4043,3.4059,3.408,3.4088,3.4077,3.4074,3.4099,3.4096,3.4107,3.4106,3.4106,3.4105,0,3.3251,3.3306,3.3391,3.3475,3.3497,3.3543,3.3613,3.3658,3.3699,3.3766,3.3784,3.3848,3.3914,3.3963,3.4047,3.407,3.4142,3.415,3.412,3.4124,3.4151,3.4147,3.4232,3.4245,3.4198,3.4198,3.4198,0,3.3284,3.3333,3.3422,3.3461,3.3502,3.3565,3.3608,3.3659,3.3703,3.3781,3.3815,3.3884,3.3942,3.4045,3.4097,3.4161,3.4171,3.4196,3.4181,3.4167,3.417,3.4167,3.4171,3.4198,3.4198,3.4199,3.4199,0,3.3337,3.3361,3.3424,3.3497,3.3548,3.3607,3.3665,3.3695,3.3756,3.3802,3.3871,3.3916,3.4004,3.407,3.414,3.4178,3.4198,3.4203,3.4214,3.4202,3.4182,3.4192,3.4125,3.4201,3.4201,3.4201,3.4201,3.4201,3.3366,3.3409,3.3479,3.3548,3.3598,3.3652,3.3698,3.3745,3.3805,3.3882,3.3907,3.3978,3.404,3.4136,3.4175,3.4229,3.4229,3.4244,3.4247,3.425,3.4249,3.4174,3.4242,3.4242,3.4242,3.4242,3.4242,0,3.3419,3.3465,3.3528,3.361,3.3663,3.368,3.3745,3.3788,3.3851,3.3909,3.3966,3.4044,3.4109,3.4165,3.4232,3.4264,3.4274,3.4279,3.4277,3.4285,3.4246,3.423,3.427,3.427,3.427,3.427,3.427,3.427,3.3453,3.3528,3.356,3.3659,3.3705,3.3777,3.3812,3.3861,3.3908,3.3995,3.405,3.4087,3.4144,3.4215,3.4274,3.4288,3.431,3.4313,3.433,3.4292,3.4288,3.4285,3.4271,3.4318,3.4318,3.4365,3.4365,3.4366]}]]